Location: Winthrop
(48.4780°N, 120.1850°W)
Time: 11:44:28
(UTC-07:00)

TIGRISAT - Visible Passes

Search period start: 16 May 2022 00:00
Search period end: 26 May 2022 00:00
Orbit: 605 x 686 km, 97.7° (Epoch: 15 May)

Date Brightness Start Highest point End Pass type
(mag) Time Alt. Az. Time Alt. Az. Time Alt. Az.
16 May ? 21:18:16 10° NNW 21:20:49 15° WNW 21:23:22 10° W visible
20 May ? 21:22:16 10° NNW 21:24:30 14° WNW 21:26:42 10° W visible
24 May ? 21:26:17 10° NNW 21:28:06 12° NW 21:29:54 10° W visible
